www.pogodaiklimat.ru

Погода и климат >> Архив погоды >> Канада >> Baker Lake Climate


ПОГОДА в Baker Lake Climate

  • Прогноз погоды в Baker Lake Climate
  • Монитор погоды в Baker Lake Climate
  • Климат города

АРХИВ ПОГОДЫ в Baker Lake Climate

Время (UTC), дата Ветер
(напр.,м/с)
 
Видим.   Явления Облачность Т
(С)
Тd
(С)
f
(%)
Тe
(С)
Тes
(С)
Комфортность P
(гПа)
Po
(гПа)
Тmin
(С)
Tmax
(С)
R
(мм)
R24
(мм)
S
(см)
12 11.12 СЗ 9 н/о н/о -24.5 -27.7 75 -39 -39 опасность
обморожения
1017.6 1010.6 -26.6 -23.3 1
15 11.12 СЗ 12 н/о н/о -26.7 -30.1 73 -44 -44 опасность
обморожения
1017.5 1010.5 0.2
18 11.12 СЗ 11 н/о н/о -28.0 -31.7 70 -45 -45 опасность
обморожения
1017.6 1010.6 -29.7 -23.0 0.2
21 11.12 СЗ 8 н/о н/о -28.2 -32.0 70 -43 -43 опасность
обморожения
1018.8 1011.8
00 12.12 СЗ 6 н/о н/о -29.0 -33.0 68 -43 -43 опасность
обморожения
1017.9 1010.9 -29.4 -24.5
03 12.12 СЗ 3 н/о н/о -29.8 -33.6 69 -40 -40 опасность
обморожения
1017.4 1010.4
06 12.12 СЗ 4 н/о н/о -30.3 -34.3 68 -41 -41 опасность
обморожения
1016.2 1009.2 -30.7 -23.0 17
09 12.12 З 2 н/о н/о -30.4 -34.3 69 -38 -38 опасность
обморожения
1016.4 1009.4
12 12.12 С 2 н/о н/о -30.2 -34.1 69 -38 -38 опасность
обморожения
1014.1 1007.1 -31.1 -23.0 1
15 12.12 С 3 н/о н/о -30.4 -34.2 69 -40 -40 опасность
обморожения
1014.0 1007.0
18 12.12 З 3 н/о н/о -30.6 -34.6 68 -40 -40 опасность
обморожения
1013.3 1006.3 -31.1 -29.2
21 12.12 С 3 н/о н/о -31.4 -35.3 68 -41 -41 опасность
обморожения
1012.8 1005.8
00 13.12 СЗ 5 н/о н/о -30.8 -34.5 70 -44 -44 опасность
обморожения
1012.8 1005.8 -31.9 -29.2
03 13.12 СВ 3 н/о н/о -30.4 -34.1 70 -39 -39 опасность
обморожения
1013.8 1006.8
06 13.12 С 5 н/о н/о -28.9 -32.4 72 -41 -41 опасность
обморожения
1014.0 1007.0 -31.9 -28.9 1
09 13.12 С 6 н/о н/о -27.4 -30.8 73 -40 -40 опасность
обморожения
1015.4 1008.4
12 13.12 С 4 н/о н/о -25.8 -29.0 74 -36 -36 опасность
обморожения
1016.7 1009.8 -31.8 -28.9 1
15 13.12 СЗ 4 н/о н/о -24.5 -27.5 76 -34 -34 опасность
обморожения
1017.8 1010.8
18 13.12 СЗ 4 н/о н/о -24.5 -27.6 75 -34 -34 опасность
обморожения
1018.8 1011.8 -31.9 -24.3
21 13.12 СЗ 4 н/о н/о -28.0 -31.5 72 -39 -39 опасность
обморожения
1019.6 1012.6
00 14.12 СЗ 6 н/о н/о -24.2 -27.2 76 -36 -36 опасность
обморожения
1020.0 1013.0 -28.9 -24.1
03 14.12 СЗ 9 н/о н/о -21.0 -23.7 79 -34 -34 опасность
обморожения
1018.9 1012.0
06 14.12 СЗ 8 н/о н/о -19.9 -22.5 80 -32 -32 опасность
обморожения
1019.0 1012.1 -28.9 -19.8 6
09 14.12 С 8 н/о н/о -21.5 -24.6 76 -34 -34 опасность
обморожения
1019.1 1012.1 0.2
12 14.12 СЗ 2 н/о н/о -23.7 -27.0 74 -30 -30 1018.5 1011.6 -24.2 -19.8 0.2 1
15 14.12 СЗ 3 н/о н/о -24.1 -27.1 76 -32 -32 опасность
обморожения
1018.1 1011.2
18 14.12 С 4 н/о {осадки} н/о -25.2 -28.3 75 -35 -35 опасность
обморожения
1018.0 1011.1 -28.0 -19.8 0.2
21 14.12 С 9 н/о н/о -27.7 -31.1 73 -43 -43 опасность
обморожения
1018.4 1011.4
00 15.12 С 10 н/о н/о -29.5 -33.2 70 -46 -46 опасность
обморожения
1018.6 1011.6 -29.7 -22.0
03 15.12 н/о н/о -29.7 -33.4 70 1018.3 1011.3
06 15.12 С 9 н/о н/о -30.2 -34.0 69 -47 -47 опасность
обморожения
1018.1 1011.1 -30.5 -19.8 8
09 15.12 С 10 н/о н/о -30.8 -34.4 71 -48 -48 опасность
обморожения
1017.4 1010.4
12 15.12 СЗ 2 н/о н/о -31.1 -34.9 69 -37 -37 опасность
обморожения
1016.8 1009.7 -31.5 -19.8 1
15 15.12 СЗ 1 н/о н/о -31.9 -35.7 69 -36 -36 опасность
обморожения
1016.1 1009.0
18 15.12 С 3 н/о н/о -30.8 -34.6 69 -41 -41 опасность
обморожения
1014.7 1007.8 -31.9 -30.2
21 15.12 С 4 н/о н/о -29.4 -33.0 71 -41 -41 опасность
обморожения
1014.0 1007.0
00 16.12 С 3 н/о н/о -25.9 -29.1 74 -35 -35 опасность
обморожения
1013.6 1006.6 -31.9 -25.9
03 16.12 С 4 н/о н/о -26.0 -29.2 74 -36 -36 опасность
обморожения
1013.0 1006.0
06 16.12 С 7 н/о н/о -25.7 -28.9 74 -39 -39 опасность
обморожения
1013.3 1006.3 -31.9 -25.6 9
09 16.12 С 5 н/о н/о -29.0 -32.7 70 -41 -41 опасность
обморожения
1013.8 1006.8
12 16.12 С 5 н/о н/о -30.0 -33.7 70 -43 -43 опасность
обморожения
1013.5 1006.5 -30.3 -25.6 1
15 16.12 С 4 н/о н/о -28.4 -31.9 72 -39 -39 опасность
обморожения
1013.3 1006.3
18 16.12 СЗ 1 н/о н/о -29.1 -32.7 71 -33 -33 опасность
обморожения
1012.8 1005.8 -31.6 -25.5
21 16.12 С 3 н/о н/о -30.4 -34.0 71 -40 -40 опасность
обморожения
1012.4 1005.4
00 17.12 СЗ 1 н/о н/о -31.2 -35.0 69 -33 -33 опасность
обморожения
1011.8 1004.8 -31.4 -27.6
03 17.12 штиль 0 н/о н/о -30.4 -34.1 70 -30 -30 1010.3 1003.3
06 17.12 ЮВ 2 н/о н/о -32.1 -36.0 68 -40 -40 опасность
обморожения
1008.8 1001.8 -32.2 -25.5
09 17.12 ЮВ 3 н/о н/о -27.6 -31.0 73 -36 -36 опасность
обморожения
1007.3 1000.3
12 17.12 В 3 н/о н/о -25.9 -29.1 74 -34 -34 опасность
обморожения
1005.8 998.9 -32.2 -25.5 1
15 17.12 В 4 н/о н/о -25.2 -28.3 75 -35 -35 опасность
обморожения
1003.8 996.9
18 17.12 ЮВ 3 н/о н/о -23.3 -26.2 77 -32 -32 опасность
обморожения
1002.9 996.0 -32.2 -23.2
21 17.12 ЮВ 3 н/о н/о -22.8 -25.7 77 -30 -30 1001.6 994.7
00 18.12 В 4 н/о н/о -23.2 -26.1 77 -33 -33 опасность
обморожения
1000.8 994.0 -32.1 -22.7
03 18.12 В 5 н/о н/о -23.2 -26.1 77 -34 -34 опасность
обморожения
999.6 992.8
06 18.12 В 6 н/о н/о -23.6 -26.6 76 -36 -36 опасность
обморожения
998.9 992.1 -32.1 -22.7

 

Местоположение метеостанции Baker Lake Climate (Канада): широта 64.32 долгота -96.00 высота над уровнем моря 51 м.

В архиве по умолчанию представлена погода в Baker Lake Climate за последнюю неделю. Архивные данные за месяц целиком и за предыдущие месяцы, начиная с января 2011 года, Вы можете получить, выбрав интересующий диапазон дат из раскрывающегося списка и нажав кнопку "Ввод!".

Внимание! Время в таблицах - всемирное. Для получения местного времени необходимо прибавить поправку, которая в Baker Lake Climate равна -6 ч.

Смотрите также архив погоды в соседних городах и на ближайших метеорологических станциях:

Погода в Baker Lake Airport (Канада) (4 км)
Погода в Back River MAPS (Канада) (197 км)
Погода в Rankin Inlet (Канада) (255 км)
Погода в Dubawnt Lake (Канада) (305 км)
Погода в Robertson Lake (Канада) (316 км)
Погода в Wager Bay (Канада) (353 км)
Погода в Arviat Climate (Канада) (372 км)
Погода в Arviat (Канада) (372 км)
Погода в Arviat Airport (Канада) (372 км)
Погода в Hanbury River ARS (Канада) (454 км)

Пояснения к столбцам:

Ветер - указаны скорость ветра в м/с - средняя за 10 мин, порывы в срок и между сроками (в фигурных скобках) и направление, откуда дует ветер: С - северный, СВ - северо-восточный, В - восточный, ЮВ - юго-восточный, Ю - южный, ЮЗ - юго-западный, З - западный, СЗ - северо-западный.
Видимость - горизонтальная дальность видимости в метрах или километрах. При видимости от 1 до 10 км при отсутствии осадков обычно наблюдается дымка, при ухудшении видимости до 1 км и менее - туман. В сухую погоду видимость может ухудшаться дымом, пылью или мглою.
Явления - указаны атмосферные явления, наблюдавшиеся в срок или в последний час перед сроком; фигурными скобками обозначены явления, наблюдавшиеся между сроками (за 1-3 часа до срока); квадратными скобками обозначены град или гололедные отложения с указанием их диаметра в мм.
Облачность - указаны через наклонную черту общая и нижняя облачность в баллах и высота нижней границы облаков в метрах; квадратными скобками обозначены формы облаков: Ci - перистые, Cs - перисто-слоистые, Cc - перисто-кучевые, Ac - высококучевые, As - высокослоистые, Sc - слоисто-кучевые, Ns - слоисто-дождевые, Cu - кучевые, Cb - кучево-дождевые. Подробнее классификацию облаков см. в Атласе облаков (PDF).
T - Температура воздуха - температура, измеренная на высоте 2 м над землей.
Td - Температура точки росы - температура, при понижении до которой содержащийся в воздухе водяной пар достигнет насыщения.
f - Относительная влажность воздуха - влажноcть воздуха, измеренная на высоте 2 м над землей.
Te - Эффективная температура - температура, которую ощущает одетый по сезону человек в тени. Характеристика душности погоды. При расчете учитывается влияние влажности воздуха и скорости ветра на теплоощущения человека.
Tes - Эффективная температура на солнце - температура, которую ощущает человек, с поправкой на солнечный нагрев. Характеристика знойности погоды. Зависит от высоты солнца над горизонтом, облачности и скорости ветра. Ночью, в пасмурную погоду, а также при ветре 12 м/с и более поправка равна нулю.
P - Атмосферное давление - приведенное к уровню моря атмосферное давление.
Po - Атмосферное давление - измеренное на уровне метеостанции атмосферное давление.
Tmin - Минимальная температура - минимум температуры воздуха на высоте 2 м над землей.
Tmax - Максимальная температура - максимум температуры воздуха на высоте 2 м над землей.
R - Количество осадков - Количество выпавших осадков за период времени, мм. При наведении курсора мыши на число - период времени, за который выпало указанное количество осадков.
R24 - Количество осадков - Количество выпавших осадков за 24 часа, мм.
S - Снежный покров - Высота снежного покрова, см. При наведении курсора мыши на число - состояние снежного покрова и степень покрытия местности в баллах.